Location: Unspecified
(0.0000°N, 0.0000°E)
Time: 03:41:01
(UTC+01:00)

Ariane H10 - Pass Details

Date: 27 November 2017
Orbit: 390 x 35079 km, 4.3° (Epoch: 13 December)

Event Time Altitude Azimuth Distance (km) Brightness Sun altitude
Rises 17:26:27 0° 89° (E) 39,825 11.6 18.9°
Reaches altitude 10° 18:52:36 10° 88° (E) 39,681 11.6 -1.1°
Maximum altitude 21:10:41 21° 86° (E) 30,229 11.0 -33.0°
Drops below altitude 10° 22:24:53 10° 85° (E) 20,098 10.3 -49.1°
Sets 22:43:41 0° 85° (E) 17,142 10.1 -53.0°
